EHI
0 0 0 0 0 0 0 0 0 0 0 0 0 0 0 0 0 0 0 0 0 0 0 0 0 0 0 0 0 0 0 0 0 0 0 0 0 0 0 0 0 0 0
0 0 0 0 0 0 0 0 0 0 0 0 0 0 0 0 0 0 0 0 0 0 0 0 0 0 0 0 0 0 0 0 0 0 0 0 0 0 0 0 0 0 0
0 0 0 0 0 0 0 0 0 0 0 0 0 0 0 0 0 0 0 0 0 0 0 0 0 0 0 0 0 0 0 0 0 0 0 0 0 0 0 0 0 0 0
0 0 0 0 0 0 0 0 0 0 0 0 0 0 0 0 0 0 0 0 0 0 0 0 0 0 0 0 0 0 0 0 0 0 0 0 0 0 0 0 0 0 0
0 0 0 0 0 0 0 0 0 0 0 0 0 0 0 0 0 0 0 0 0 0 0 0 0 0 0 0 0 0 0 0 0 0 0 0 0 0 0 0 0 0 0
0 0 0 0 0 0 0 0 0 0 0 0 0 0 0 0 0 0 0 0 0 0 0 0 0 0 0 0 0 0 0 0 0 0 0 0 0 0 0 0 0 0 0
0 0 0 0 0 0 0 0 0 0 0 0 0 0 0 0 0 0 0 0 0 0 0 0 0 0 0 0 0 0 0 0 0 0 0 0 0 0 0 0 0 0 0
0 0 0 0 0 0 0 0 0 0 0 0 0 0 0 0 0 0 0 0 0 0 0 0 0 0 0 0 0 0 0 0 0 0 0 0 0 0 0 0 0 0 0
0 0 0 0 0 0 0 0 0 0 0 0 0 0 0 0 0 0 0 0 0 0 0 0 0 0 0 0 0 0 0 0 0 0 0 0 0 0 0 0 0 0 0
0 0 0 0 0 0 0 0 0 0 0 0 0 0 0 0 0 0 0 0 0 0 0 0 0 0 0 0 0 0 0 0 0 0 0 0 0 0 0 0 0 0 0
0 0 0 0 0 0 0 0 0 0 0 0 0 0 0 0 0 0 0 0 0 0 0 0 0 0 0 0 0 0 0 0 0 0 0 0 0 0 0 0 0 0 0
0 0 0 0 0 0 0 0 0 0 0 0 0 0 0 0 0 0 0 0 0 0 0 0 0 0 0 0 0 0 0 0 0 0 0 0 0 0 0 0 0 0 0
0 0 0 0 0 0 0 0 0 0 0 0 0 0 0 0 0 0 0 0 0 0 0 0 0 0 0 0 0 0 0 0 0 0 0 0 0 0 0 0 0 0 0
0 0 0 0 0 0 0 0 0 0 0 0 0 0 0 0 0 0 0 0 0 0 0 0 0 0 0 0 0 0 0 0 0 0 0 0 0 0 0 0 0 0 0
0 0 0 0 0 0 0 0 0 0 0 0 0 0 0 0 0 0 0 0 0 0 0 0 0 0 0 0 0 0 0 0 0 0 0 0 0 0 0 0 0 0 0
0 0 0 0 0 0 0 0 0 0 0 0 0 0 0 0 0 0 0 0 0 0 0 0 0 0 0 0 0 0 0 0 0 0 0 0 0 0 0 0 0 0 0
0 0 0 0 0 0 0 0 0 0 0 0 0 0 0 0 0 0 0 0 0 0 0 0 0 0 0 0 0 0 0 0 0 0 0 0 0 0 0 0 0 0 0
0 0 0 0 0 0 0 0 0 0 0 0 0 0 0 0 0 0 0 0 0 0 0 0 0 0 0 0 0 0 0 0 0 0 0 0 0 0 0 0 0 0 0
0 0 0 0 0 0 0 0 0 0 0 0 0 0 0 0 0 0 0 0 0 0 0 0 0 0 0 0 0 0 0 0 0 0 0 0 0 0 0 0 0 0 0
0 0 0 0 0 0 0 0 0 0 0 0 0 0 0 0 0 0 0 0 0 0 0 0 0 0 0 0 0 0 0 0 0 0 0 0 0 0 0 0 0 0 0
0 0 0 0 0 0 0 0 0 0 0 0 0 0 0 0 0 0 0 0 0 0 0 0 0 0 0 0 0 0 0 0 0 0 0 0 0 0 0 0 0 0 0
0 0 0 0 0 0 0 0 0 0 0 0 0 0 0 0 0 0 0 0 0 0 0 0 0 0 0 0 0 0 0 0 0 0 0 0 0 0 0 0 0 0 0
0 0 0 0 0 0 0 0 0 0 0 0 0 0 0 0 0 0 0 0 0 0 0 0 0 0 0 0 0 0 0 0 0 0 0 0 0 0 0 0 0 0 0
0 0 0 0 0 0 0 0 0 0 0 0 0 0 0 0 0 0 0 0 0 0 0 0 0 0 0 0 0 0 0 0 0 0 0 0 0 0 0 0 0 0 0
0 0 0 0 0 0 0 0 0 0 0 0 0 0 0 0 0 0 0 0 0 0 0 0 0 0 0 0 0 0 0 0 0 0 0 0 0 0 0 0 0 0 0
0 0 0 0 0 0 0 0 0 0 0 0 0 0 0 0 0 0 0 0 0 0 0 0 0 0 0 0 0 0 0 0 0 0 0 0 0 0 0 0 0 0 0
Wind_Speed
4 4 4 4 3 2 2 2 1 1 1 1 1 2 2 2 2 3 3 4 4 4 3 2 3 3 2 2 2 1 1 1 1 0 1 1 2 3 3 3 2 3 3
4 5 5 4 4 3 3 3 3 2 1 1 1 1 1 2 2 3 3 4 4 4 3 3 2 2 2 3 2 1 1 1 0 1 0 1 2 1 2 2 3 3 2
8 7 6 5 4 4 5 4 4 3 2 1 0 1 2 2 3 3 3 4 4 4 3 3 2 3 2 2 2 1 0 1 1 0 1 1 1 1 1 1 1 2 2
7 7 7 6 6 6 5 4 4 3 2 1 0 0 0 1 2 2 3 4 4 4 3 3 3 2 2 2 2 1 0 0 1 1 1 1 1 1 1 2 1 1 2
8 9 9 8 6 5 4 4 3 3 2 1 1 1 1 1 2 2 3 4 4 4 4 3 3 3 2 2 2 2 1 0 1 1 0 0 0 0 1 1 2 1 1
8 7 6 5 4 4 4 4 4 4 3 2 2 2 2 2 2 3 3 3 3 3 4 4 3 2 2 2 2 2 1 1 0 1 1 1 1 1 1 1 1 2 2
8 7 7 7 6 6 6 5 4 5 4 3 3 3 3 2 3 2 2 3 3 3 4 4 3 2 2 2 2 1 2 1 1 1 1 1 1 1 1 1 1 1 2
7 8 8 8 7 7 6 5 6 6 4 4 4 3 3 2 2 3 2 2 2 3 4 3 3 3 3 2 2 1 2 1 1 1 1 1 2 1 2 2 1 1 1
8 8 7 7 7 7 7 7 6 6 5 4 4 3 3 3 3 3 2 2 2 3 3 3 3 3 3 2 2 1 2 2 2 2 1 1 1 1 2 2 2 2 2
7 7 7 7 7 7 6 5 6 6 5 4 4 3 3 3 3 2 3 3 3 2 3 3 3 3 3 3 2 1 2 2 2 2 2 2 2 2 2 2 2 3 3
8 8 7 7 6 5 5 5 5 5 4 4 4 3 3 3 2 2 3 3 2 2 2 3 3 3 3 3 2 2 2 2 2 2 2 3 3 2 2 1 2 2 3
7 7 7 6 5 6 5 5 5 5 5 4 4 3 3 2 2 3 3 3 3 2 2 2 3 3 3 3 2 3 3 2 3 3 3 3 3 2 2 2 2 3 3
6 6 6 6 7 6 6 6 6 6 5 4 4 3 3 3 3 4 3 3 3 3 2 2 3 3 3 3 3 2 3 3 3 3 3 3 3 3 2 2 3 3 3
6 7 7 7 7 6 6 6 6 5 5 4 4 5 5 4 4 4 3 3 3 3 3 3 3 3 3 3 3 2 2 3 3 3 3 4 3 4 4 3 3 3 3
7 8 8 7 7 6 6 6 6 5 5 5 5 6 5 4 4 4 4 3 3 3 3 3 4 4 3 3 3 3 3 3 3 4 4 4 5 6 4 3 3 3 3
9 9 8 8 8 8 7 6 6 6 5 5 6 5 4 4 4 4 4 3 4 4 3 4 4 4 4 7 7 4 2 3 3 4 4 4 5 6 6 6 6 5 4
9 9 9 9 9 9 8 8 7 5 5 6 5 5 4 5 5 4 4 4 4 4 4 4 4 5 7 10 8 6 3 3 3 3 4 4 4 5 4 6 7 6 7
9 9 8 8 7 7 7 6 5 5 5 5 5 5 5 5 4 4 5 5 4 4 4 5 5 5 7 10 8 7 3 3 3 4 4 4 4 4 4 3 4 5 5
9 8 8 7 7 7 7 6 5 5 5 5 6 5 5 5 5 5 6 5 4 5 5 5 5 6 8 10 9 6 2 3 4 4 4 4 4 8 7 4 5 6 5
6 6 6 5 6 6 7 7 6 5 6 6 5 4 4 5 5 6 5 3 4 5 4 5 5 6 7 10 10 7 2 3 4 3 3 5 6 8 7 4 4 6 6
6 6 7 6 6 6 8 7 6 6 6 4 3 2 2 3 4 3 3 3 3 3 4 5 5 5 7 9 10 7 3 3 3 3 3 3 7 8 8 6 4 7 7
6 7 7 5 4 6 8 7 6 5 3 3 2 1 1 1 1 1 2 2 2 3 4 4 5 4 4 5 7 7 6 5 4 4 3 4 7 8 9 6 7 9 7
7 6 7 7 4 5 7 7 5 4 4 4 2 1 1 0 0 0 1 1 1 1 2 2 4 5 3 4 7 7 6 6 4 3 4 5 6 7 6 7 9 6 3
7 7 8 8 5 4 5 5 4 5 5 4 3 2 2 1 2 1 1 1 1 1 2 2 3 4 4 4 3 3 3 3 2 1 2 4 5 4 5 6 5 3 2
7 8 9 9 7 6 5 4 5 6 6 5 3 3 2 2 2 2 1 2 2 2 1 2 2 3 4 5 6 2 1 0 0 1 2 2 3 4 4 4 4 3 3
8 8 8 9 8 7 6 5 5 6 7 5 3 2 2 2 2 2 2 4 3 7 8 7 5 2 4 7 6 5 5 4 4 4 3 3 3 3 4 4 4 4 4
Wind_Direction
219 189 178 169 160 160 173 199 225 264 2 9 355 351 340 333 341 343 348 351 350 350 352 354 354 357 358 338 328 315 314 291 258 284 310 296 239 231 228 222 218 218 216
189 187 181 176 178 184 199 219 235 247 246 234 253 255 282 300 300 317 343 352 353 349 356 2 351 349 350 357 358 355 347 316 343 135 100 325 331 284 238 220 217 219 210
194 192 188 192 192 205 210 217 227 235 245 249 24 16 12 354 351 344 340 339 343 347 354 358 352 347 351 342 336 340 16 317 313 230 159 161 237 305 317 255 232 210 200
190 190 191 196 206 216 214 221 226 234 242 207 140 104 59 315 295 301 310 322 339 348 356 359 356 349 347 338 324 8 333 238 296 312 288 219 183 184 334 332 311 257 223
190 193 198 201 209 211 210 218 225 239 240 222 204 181 244 261 291 307 325 336 338 346 354 354 355 351 346 340 340 352 6 288 227 246 286 291 342 187 189 286 313 315 272
193 199 202 199 214 217 216 217 224 243 240 231 225 216 242 269 304 321 332 333 329 332 345 348 349 345 346 338 333 342 359 358 273 243 222 204 188 186 193 228 266 280 280
186 191 196 202 213 216 218 216 221 242 242 237 239 236 241 245 256 277 297 312 322 320 325 340 336 336 334 335 343 358 350 344 334 282 243 235 233 209 189 198 234 267 291
191 197 201 203 209 216 216 215 221 237 240 236 242 245 241 236 248 257 260 274 276 284 305 325 331 333 338 352 1 356 334 340 327 318 292 264 259 230 208 195 182 242 281
199 203 204 205 210 215 217 213 218 232 236 232 236 245 246 243 252 263 264 270 277 287 311 327 338 339 344 353 360 345 329 328 319 310 309 291 276 261 235 219 201 192 232
206 208 207 209 213 217 221 216 216 226 231 227 228 234 241 246 255 265 274 279 291 303 320 332 337 341 349 352 356 334 328 337 321 306 317 310 290 285 258 234 225 211 208
207 207 209 210 211 214 214 217 219 223 228 225 226 238 251 256 260 259 268 277 287 299 310 319 326 333 336 338 340 328 334 339 329 328 320 310 301 291 283 260 237 229 219
209 205 204 199 203 212 215 218 218 220 224 217 215 228 244 253 258 264 273 276 282 288 291 306 316 318 321 325 325 321 332 331 322 319 320 311 313 300 286 271 255 243 230
208 200 195 199 206 210 213 218 218 221 220 203 207 225 238 243 253 262 272 273 275 286 295 296 298 302 306 309 304 296 301 303 299 299 298 297 301 291 282 274 265 258 250
205 198 202 208 209 208 210 216 224 219 209 197 205 223 234 236 246 256 263 263 265 276 285 287 286 287 289 289 288 286 291 296 295 290 283 282 274 269 272 272 266 257 253
206 203 205 208 207 209 213 216 223 215 199 196 212 228 234 236 243 252 257 260 264 267 272 284 293 292 284 273 270 267 271 282 295 297 290 283 284 277 267 260 258 253 250
211 208 206 203 204 206 208 210 217 210 191 202 221 229 229 235 241 247 252 260 265 270 272 274 281 289 283 293 293 276 255 269 280 290 296 296 297 309 311 308 295 274 258
207 204 203 202 204 204 199 203 210 195 191 210 225 226 225 236 243 246 251 256 259 262 268 269 270 276 280 289 295 289 260 258 267 273 287 300 304 314 300 303 308 301 289
203 204 201 202 204 197 192 195 185 183 197 213 226 227 224 238 246 245 250 253 252 254 260 266 268 272 278 286 286 285 270 260 267 265 267 275 292 295 292 287 294 288 282
196 197 193 190 186 185 180 167 173 181 196 217 227 228 220 232 242 246 251 250 246 253 252 256 263 266 277 285 284 276 246 260 272 271 265 263 277 295 302 294 292 293 287
184 179 168 161 170 180 159 159 174 180 206 220 227 226 218 224 238 247 254 248 239 253 263 265 259 255 267 281 283 274 222 253 271 281 275 271 275 291 301 283 282 291 290
169 155 149 157 173 159 150 161 170 196 213 209 203 207 214 224 238 254 259 263 263 270 273 276 277 266 263 278 282 271 217 226 255 272 278 277 290 297 302 297 270 274 285
153 150 147 153 151 150 152 160 183 200 176 157 163 186 217 240 239 258 285 287 281 287 291 294 298 287 275 270 280 277 250 220 218 248 260 276 297 304 307 302 292 295 297
157 151 146 140 137 151 157 163 183 161 143 138 146 148 90 35 2 303 310 324 330 310 305 306 303 307 307 296 292 290 281 251 221 238 259 287 308 318 317 314 316 317 305
159 150 144 144 150 154 154 161 153 145 139 139 140 121 97 58 38 41 44 39 3 344 332 327 313 310 316 318 315 304 303 296 260 275 324 338 343 340 320 322 327 324 298
161 158 157 156 157 150 146 146 145 139 133 129 123 109 96 84 54 48 61 68 48 68 39 324 306 321 323 322 321 313 312 257 162 94 49 26 7 360 353 343 334 329 329
159 157 156 153 153 148 144 144 144 140 134 129 125 117 105 86 74 70 48 42 54 49 46 38 31 356 346 344 7 34 43 53 89 88 57 29 12 357 346 341 337 334 335